TimeEDT,TemperatureF,Dew PointF,Humidity,Sea Level PressureIn,VisibilityMPH,Wind Direction,Wind SpeedMPH,Gust SpeedMPH,PrecipitationIn,Events,Conditions,WindDirDegrees,DateUTC
12:53 AM,71.1,68.0,90,29.96,10.0,SSE,3.5,-,N/A,,Mostly Cloudy,160,2013-07-19 04:53:00
1:19 AM,71.6,68.0,88,29.96,10.0,SSE,4.6,-,N/A,,Overcast,160,2013-07-19 05:19:00
1:28 AM,71.6,68.0,88,29.95,10.0,Calm,Calm,-,N/A,,Overcast,0,2013-07-19 05:28:00
1:53 AM,70.0,68.0,93,29.94,10.0,Calm,Calm,-,N/A,,Overcast,0,2013-07-19 05:53:00
2:53 AM,70.0,68.0,93,29.92,10.0,South,3.5,-,N/A,,Mostly Cloudy,170,2013-07-19 06:53:00
3:32 AM,69.8,68.0,94,29.91,10.0,South,3.5,-,N/A,,Scattered Clouds,180,2013-07-19 07:32:00
3:53 AM,70.0,66.9,90,29.90,10.0,South,3.5,-,N/A,,Mostly Cloudy,190,2013-07-19 07:53:00
4:18 AM,69.8,68.0,94,29.90,10.0,Calm,Calm,-,N/A,,Overcast,0,2013-07-19 08:18:00
4:53 AM,70.0,68.0,93,29.88,10.0,Calm,Calm,-,N/A,,Overcast,0,2013-07-19 08:53:00
5:53 AM,70.0,68.0,93,29.88,10.0,Calm,Calm,-,N/A,,Overcast,0,2013-07-19 09:53:00
6:07 AM,71.6,68.0,88,29.87,9.0,South,3.5,-,N/A,,Overcast,180,2013-07-19 10:07:00
6:53 AM,71.1,69.1,93,29.88,5.0,Calm,Calm,-,N/A,,Overcast,0,2013-07-19 10:53:00
7:53 AM,73.9,70.0,87,29.86,9.0,SSW,3.5,-,N/A,,Scattered Clouds,200,2013-07-19 11:53:00
8:53 AM,77.0,70.0,79,29.84,10.0,South,4.6,-,N/A,,Clear,190,2013-07-19 12:53:00
9:53 AM,80.1,71.1,74,29.83,10.0,South,6.9,-,N/A,,Clear,170,2013-07-19 13:53:00
10:53 AM,79.0,71.1,77,29.82,10.0,Variable,3.5,-,N/A,,Clear,0,2013-07-19 14:53:00
11:53 AM,84.9,73.0,67,29.78,10.0,SSW,9.2,-,N/A,,Clear,210,2013-07-19 15:53:00
12:53 PM,87.1,73.9,65,29.75,10.0,SSW,9.2,-,N/A,,Clear,200,2013-07-19 16:53:00
1:53 PM,86.0,73.9,67,29.73,10.0,SW,10.4,16.1,N/A,,Clear,220,2013-07-19 17:53:00
2:53 PM,91.0,73.0,55,29.70,10.0,SW,13.8,18.4,N/A,,Clear,220,2013-07-19 18:53:00
3:53 PM,91.0,73.0,55,29.67,10.0,SSW,9.2,-,N/A,,Clear,210,2013-07-19 19:53:00
4:53 PM,90.0,72.0,55,29.66,10.0,SW,8.1,-,N/A,,Clear,230,2013-07-19 20:53:00
5:53 PM,89.1,72.0,57,29.65,10.0,SSW,5.8,-,N/A,,Clear,210,2013-07-19 21:53:00
6:53 PM,87.1,72.0,61,29.65,10.0,South,3.5,-,N/A,,Clear,170,2013-07-19 22:53:00
7:53 PM,84.0,71.1,65,29.65,10.0,South,3.5,-,N/A,,Clear,190,2013-07-19 23:53:00
8:53 PM,82.0,71.1,69,29.66,10.0,Calm,Calm,-,N/A,,Clear,0,2013-07-20 00:53:00
9:53 PM,82.9,72.0,69,29.67,10.0,Variable,4.6,-,N/A,,Clear,0,2013-07-20 01:53:00
10:53 PM,84.0,72.0,67,29.67,10.0,SSW,11.5,17.3,N/A,,Mostly Cloudy,210,2013-07-20 02:53:00
11:53 PM,81.0,72.0,74,29.68,10.0,Calm,Calm,-,N/A,,Scattered Clouds,0,2013-07-20 03:53:00